Defiance, OH

1:32 AM EDT on August 27, 2016 (GMT -0400)
Defiance Memorial

Weather History for KDFI - May, 2013

Change the Weather History Date:

Sunday, May 5, 2013

  Actual Average Record
Temperature  
Mean Temperature 61 °F -  
Max Temperature 73 °F 66 °F 90 °F (1949)
Min Temperature 51 °F 42 °F 31 °F (1971)
Degree Days  
Heating Degree Days 4    
Growing Degree Days 11 (Base 50)    
Moisture  
Dew Point 42 °F    
Average Humidity 51    
Maximum Humidity 71    
Minimum Humidity 33    
Precipitation  
Precipitation 0.00 in - - ()
Sea Level Pressure  
Sea Level Pressure 30.02 in    
Wind  
Wind Speed 6 mph (ENE)    
Max Wind Speed 15 mph    
Max Gust Speed 22 mph    
Visibility 10 miles    
Events      
Averages and records for this station are not official NWS values.
T = Trace of Precipitation, MM = Missing Value Source: NWS Daily Summary

Daily Weather History Graph

Daily Weather History Graph

Search for Another Location

Airport or City:

Trip Planner

Search our weather history database for the weather conditions in past years. The results will help you decide how hot, cold, wet, or windy it might be!

Date:

Astronomy

May. 05, 2013 Rise Set
Actual Time 6:29 AM EDT 8:39 PM EDT
Civil Twilight 5:59 AM EDT 9:10 PM EDT
Nautical Twilight 5:21 AM EDT 9:47 PM EDT
Astronomical Twilight 4:40 AM EDT 10:29 PM EDT
Moon 4:02 AM EDT (5/5) 4:35 PM EDT (5/5)
Length of Visible Light 15h 10m
Length of Day
14h 09m
Waning Crescent, 18% of the Moon is Illuminated
May 5
Waning Crescent
May 9
New
May 18
First Quarter
May 25
Full
May 31
Last Quarter

Hourly Weather History & Observations

Time (EDT) Temp. Dew Point Humidity Pressure Visibility Wind Dir Wind Speed Gust Speed Precip Events Conditions
12:53 AM 55.0 °F 42.1 °F 62% 30.05 in 10.0 mi NE 4.6 mph - N/A   Clear
1:53 AM 54.0 °F 42.1 °F 64% 30.04 in 10.0 mi NE 3.5 mph - N/A   Clear
2:53 AM 54.0 °F 42.1 °F 64% 30.03 in 10.0 mi NE 3.5 mph - N/A   Clear
3:53 AM 53.1 °F 42.1 °F 66% 30.02 in 10.0 mi ENE 4.6 mph - N/A   Clear
4:53 AM 53.1 °F 42.1 °F 66% 30.02 in 10.0 mi ENE 5.8 mph - N/A   Clear
5:53 AM 51.1 °F 42.1 °F 71% 30.03 in 10.0 mi ENE 3.5 mph - N/A   Clear
6:53 AM 51.1 °F 42.1 °F 71% 30.04 in 10.0 mi ENE 3.5 mph - N/A   Clear
7:53 AM 54.0 °F 44.1 °F 69% 30.05 in 10.0 mi ENE 6.9 mph - N/A   Clear
8:53 AM 59.0 °F 45.0 °F 60% 30.06 in 10.0 mi East 6.9 mph - N/A   Clear
9:53 AM 61.0 °F 44.1 °F 54% 30.06 in 10.0 mi ESE 6.9 mph - N/A   Clear
10:53 AM 64.0 °F 46.0 °F 52% 30.06 in 10.0 mi East 11.5 mph - N/A   Clear
11:53 AM 66.9 °F 45.0 °F 45% 30.04 in 10.0 mi East 8.1 mph - N/A   Clear
12:53 PM 69.1 °F 44.1 °F 40% 30.03 in 10.0 mi East 12.7 mph 20.7 mph N/A   Clear
2:53 PM 71.1 °F 42.1 °F 35% 30.01 in 10.0 mi ENE 9.2 mph - N/A   Clear
3:53 PM 71.1 °F 43.0 °F 36% 30.00 in 10.0 mi ENE 15.0 mph 21.9 mph N/A   Clear
4:53 PM 70.0 °F 43.0 °F 38% 29.99 in 10.0 mi ENE 10.4 mph - N/A   Clear
5:53 PM 70.0 °F 39.9 °F 33% 29.99 in 10.0 mi East 13.8 mph 18.4 mph N/A   Clear
6:53 PM 69.1 °F 39.9 °F 35% 29.99 in 10.0 mi ENE 9.2 mph 16.1 mph N/A   Clear
7:53 PM 66.0 °F 37.9 °F 36% 29.99 in 10.0 mi NE 9.2 mph - N/A   Clear
8:53 PM 62.1 °F 39.0 °F 43% 30.00 in 10.0 mi NE 6.9 mph - N/A   Clear
9:53 PM 61.0 °F 39.0 °F 44% 30.00 in 10.0 mi NE 6.9 mph - N/A   Clear
10:53 PM 60.1 °F 39.9 °F 47% 30.01 in 10.0 mi NE 4.6 mph - N/A   Clear
11:53 PM 57.9 °F 41.0 °F 53% 29.99 in 10.0 mi NNE 5.8 mph - N/A   Clear